GW2765 Weather Reports


Display with metric or nautical units.
time (UTC)temp
F
wind
direction
speed
MPH
gust
MPH
rain 1hr
in
rain 24hr
in
rain mn
in
humidity
%
barometer
mb
20260504004333 86 248 9.0 20.0 0.00 0.00 0.00 27 1006.4
20260504003833 86 173 12.0 22.0 0.00 0.00 0.00 27 1006.3
20260504003331 86 288 13.0 23.0 0.00 0.00 0.00 28 1006.0
20260504002830 86 262 14.0 27.0 0.00 0.00 0.00 27 1005.8
20260504002332 86 255 14.0 27.0 0.00 0.00 0.00 27 1005.9
20260504001834 87 212 14.0 26.0 0.00 0.00 0.00 26 1005.7
20260504001329 87 243 13.0 26.0 0.00 0.00 0.00 26 1005.6
20260504000830 87 245 14.0 31.0 0.00 0.00 0.00 26 1005.5
20260504000329 87 243 16.0 31.0 0.00 0.00 0.00 26 1005.6
20260503235829 87 269 16.0 28.0 0.00 0.00 0.00 24 1005.6
20260503235330 88 266 17.0 31.0 0.00 0.00 0.00 26 1005.9
20260503235052 88 246 15.0 31.0 0.00 0.00 0.00 26 1005.7
20260503234557 89 250 14.0 28.0 0.00 0.00 0.00 23 1005.7
20260503233829 89 255 10.0 25.0 0.00 0.00 0.00 24 1005.9
20260503233328 89 146 6.0 17.0 0.00 0.00 0.00 24 1006.0
20260503232831 89 159 7.0 17.0 0.00 0.00 0.00 27 1006.3
20260503232325 88 226 7.0 26.0 0.00 0.00 0.00 28 1006.4
20260503232052 89 264 5.0 26.0 0.00 0.00 0.00 30 1006.1
20260503231323 88 297 5.0 12.0 0.00 0.00 0.00 29 1006.3
20260503230831 87 326 4.0 13.0 0.00 0.00 0.00 32 1006.0
20260503225823 87 316 7.0 15.0 0.00 0.00 0.00 32 1006.0
20260503225322 87 348 7.0 15.0 0.00 0.00 0.00 33 1006.0
20260503224825 87 330 8.0 15.0 0.00 0.00 0.00 32 1005.9
20260503224322 87 331 7.0 14.0 0.00 0.00 0.00 32 1005.9
20260503223823 87 334 6.0 14.0 0.00 0.00 0.00 32 1005.9
20260503223320 87 6 5.0 12.0 0.00 0.00 0.00 32 1006.1
20260503222821 87 42 5.0 12.0 0.00 0.00 0.00 32 1006.1
20260503222320 87 307 5.0 10.0 0.00 0.00 0.00 31 1006.2
20260503221818 87 242 6.0 14.0 0.00 0.00 0.00 33 1006.2
20260503221319 86 308 7.0 15.0 0.00 0.00 0.00 31 1006.2
20260503220818 87 354 6.0 15.0 0.00 0.00 0.00 32 1006.3
20260503220319 87 314 6.0 11.0 0.00 0.00 0.00 32 1006.3
20260503215817 87 346 7.0 15.0 0.00 0.00 0.00 33 1006.5
20260503215312 87 297 6.0 15.0 0.00 0.00 0.00 32 1006.6
20260503214808 87 335 6.0 13.0 0.00 0.00 0.00 33 1006.5
20260503214532 87 347 5.0 13.0 0.00 0.00 0.00 32 1006.7
20260503213806 88 316 5.0 12.0 0.00 0.00 0.00 32 1006.8
20260503213547 88 331 5.0 11.0 0.00 0.00 0.00 31 1006.8
20260503212538 89 11 4.0 9.0 0.00 0.00 0.00 30 1006.7
20260503211804 88 310 5.0 13.0 0.00 0.00 0.00 31 1006.8
20260503211304 88 351 6.0 13.0 0.00 0.00 0.00 31 1006.7
20260503211034 88 342 5.0 13.0 0.00 0.00 0.00 30 1006.8
20260503210303 90 356 3.0 13.0 0.00 0.00 0.00 28 1006.9
20260503205805 90 48 4.0 12.0 0.00 0.00 0.00 30 1007.0
20260503205306 89 314 4.0 12.0 0.00 0.00 0.00 29 1007.0
20260503204804 90 327 4.0 8.0 0.00 0.00 0.00 29 1006.9
20260503204306 90 2 3.0 9.0 0.00 0.00 0.00 29 1007.0
20260503203804 90 343 3.0 9.0 0.00 0.00 0.00 29 1007.0
20260503203303 90 50 4.0 10.0 0.00 0.00 0.00 28 1007.2
20260503203026 89 23 4.0 11.0 0.00 0.00 0.00 29 1007.2
20260503202301 89 330 3.0 11.0 0.00 0.00 0.00 28 1007.2
20260503201801 90 354 2.0 7.0 0.00 0.00 0.00 28 1007.3
20260503201302 89 335 2.0 7.0 0.00 0.00 0.00 28 1007.3
20260503200802 89 85 3.0 7.0 0.00 0.00 0.00 28 1007.4
20260503200301 89 330 3.0 7.0 0.00 0.00 0.00 29 1007.6
20260503195801 89 42 4.0 8.0 0.00 0.00 0.00 28 1007.7
20260503195301 89 25 4.0 8.0 0.00 0.00 0.00 30 1007.8
20260503194803 89 70 4.0 8.0 0.00 0.00 0.00 28 1007.9
20260503194302 89 349 4.0 11.0 0.00 0.00 0.00 29 1007.9
20260503193801 89 11 3.0 11.0 0.00 0.00 0.00 28 1007.9
20260503193301 89 328 2.0 7.0 0.00 0.00 0.00 27 1007.9
20260503192301 90 296 1.0 6.0 0.00 0.00 0.00 26 1008.2
20260503191801 89 214 2.0 6.0 0.00 0.00 0.00 27 1008.1
20260503191532 88 49 2.0 6.0 0.00 0.00 0.00 29 1008.2
20260503190802 88 68 2.0 6.0 0.00 0.00 0.00 28 1008.3
20260503190535 89 355 2.0 8.0 0.00 0.00 0.00 29 1008.4
20260503185802 88 62 3.0 10.0 0.00 0.00 0.00 28 1008.4
20260503185258 88 58 3.0 10.0 0.00 0.00 0.00 29 1008.3
20260503185022 88 13 3.0 8.0 0.00 0.00 0.00 30 1008.3
20260503184515 88 25 3.0 8.0 0.00 0.00 0.00 29 1008.4
20260503183741 88 44 2.0 6.0 0.00 0.00 0.00 31 1008.4
20260503183240 88 28 2.0 6.0 0.00 0.00 0.00 30 1008.6
20260503182457 88 102 1.0 5.0 0.00 0.00 0.00 29 1008.6
20260503181958 87 129 1.0 5.0 0.00 0.00 0.00 29 1008.8
20260503181231 87 71 1.0 4.0 0.00 0.00 0.00 31 1008.8
20260503180731 86 330 1.0 3.0 0.00 0.00 0.00 32 1008.8
20260503180231 85 279 2.0 5.0 0.00 0.00 0.00 32 1008.8
20260503175730 85 13 2.0 5.0 0.00 0.00 0.00 32 1009.1
20260503175230 85 340 2.0 5.0 0.00 0.00 0.00 33 1009.2
20260503174958 85 307 1.0 4.0 0.00 0.00 0.00 36 1009.3
20260503174230 85 312 1.0 4.0 0.00 0.00 0.00 37 1009.2
20260503173731 85 28 1.0 4.0 0.00 0.00 0.00 34 1009.4
20260503173230 84 307 1.0 3.0 0.00 0.00 0.00 36 1009.3
20260503172730 84 75 1.0 3.0 0.00 0.00 0.00 37 1009.3
20260503172230 84 345 1.0 3.0 0.00 0.00 0.00 38 1009.3
20260503171730 83 23 1.0 3.0 0.00 0.00 0.00 40 1009.5
20260503171232 83 347 1.0 3.0 0.00 0.00 0.00 40 1009.4
20260503170959 83 58 1.0 4.0 0.00 0.00 0.00 40 1009.5
20260503170500 82 136 1.0 4.0 0.00 0.00 0.00 40 1009.6
20260503150729 75 91 0.0 1.0 0.00 0.00 0.00 54 1009.7
20260503150230 74 34 0.0 3.0 0.00 0.00 0.00 56 1009.6
20260503131204 68 1 0.0 2.0 0.00 0.00 0.00 63 1008.5
20260503130704 67 271 0.0 1.0 0.00 0.00 0.00 63 1008.5
20260503130205 68 28 0.0 1.0 0.00 0.00 0.00 63 1008.3
20260503120145 70 202 0.0 2.0 0.00 0.00 0.00 58 1008.0
20260503110637 72 17 0.0 1.0 0.00 0.00 0.00 53 1007.9
20260503110134 73 17 0.0 1.0 0.00 0.00 0.00 52 1008.0
20260503100129 75 314 0.0 2.0 0.00 0.00 0.00 47 1008.2
20260503090354 78 268 0.0 1.0 0.00 0.00 0.00 43 1008.7
20260503081622 79 356 0.0 2.0 0.00 0.00 0.00 43 1009.2
20260503081123 79 255 1.0 7.0 0.00 0.00 0.00 43 1009.1
20260503080620 79 353 1.0 7.0 0.00 0.00 0.00 43 1009.1
20260503080346 79 340 0.0 3.0 0.00 0.00 0.00 42 1009.3
20260503072615 80 30 1.0 3.0 0.00 0.00 0.00 41 1009.1
20260503072115 80 319 1.0 3.0 0.00 0.00 0.00 41 1009.4
20260503071614 80 15 0.0 2.0 0.00 0.00 0.00 41 1009.3
20260503071116 81 61 0.0 2.0 0.00 0.00 0.00 40 1009.3
20260503070614 81 245 1.0 5.0 0.00 0.00 0.00 41 1009.3
20260503070116 80 346 1.0 5.0 0.00 0.00 0.00 41 1009.1
20260503060334 82 262 0.0 3.0 0.00 0.00 0.00 39 1009.5
20260503055103 82 124 1.0 2.0 0.00 0.00 0.00 39 1009.2
20260503054826 82 212 0.0 2.0 0.00 0.00 0.00 39 1009.2
20260503054102 82 68 0.0 1.0 0.00 0.00 0.00 39 1009.2
20260503053601 83 68 0.0 1.0 0.00 0.00 0.00 38 1009.3
20260503053102 83 74 0.0 2.0 0.00 0.00 0.00 37 1009.4
20260503052601 83 74 0.0 2.0 0.00 0.00 0.00 37 1009.3
20260503052102 83 168 0.0 2.0 0.00 0.00 0.00 37 1009.2
20260503051601 84 233 0.0 2.0 0.00 0.00 0.00 36 1009.2
20260503051102 84 277 0.0 1.0 0.00 0.00 0.00 36 1009.1
20260503050602 84 352 0.0 1.0 0.00 0.00 0.00 36 1009.2
20260503050100 85 50 0.0 2.0 0.00 0.00 0.00 35 1009.1
20260503045601 85 91 0.0 2.0 0.00 0.00 0.00 34 1009.1
20260503045101 85 15 0.0 1.0 0.00 0.00 0.00 34 1009.0
20260503044827 85 15 0.0 2.0 0.00 0.00 0.00 33 1009.0
20260503044101 86 11 0.0 3.0 0.00 0.00 0.00 33 1009.0
20260503043827 86 74 0.0 3.0 0.00 0.00 0.00 32 1008.9
20260503043100 86 96 0.0 2.0 0.00 0.00 0.00 31 1008.8
20260503042836 86 83 0.0 0.0 0.00 0.00 0.00 30 1008.8
20260503042102 86 122 0.0 1.0 0.00 0.00 0.00 30 1008.7
20260503041601 86 122 0.0 1.0 0.00 0.00 0.00 30 1008.5
20260503041102 86 165 0.0 3.0 0.00 0.00 0.00 29 1008.6
20260503040601 87 193 0.0 3.0 0.00 0.00 0.00 29 1008.4
20260503035601 87 106 0.0 3.0 0.00 0.00 0.00 24 1008.4
20260503035100 88 255 0.0 1.0 0.00 0.00 0.00 23 1008.4
20260503034605 88 19 0.0 5.0 0.00 0.00 0.00 19 1008.3
20260503034101 89 326 0.0 5.0 0.00 0.00 0.00 18 1008.2
20260503033830 89 119 0.0 2.0 0.00 0.00 0.00 17 1008.2
20260503033101 90 137 2.0 4.0 0.00 0.00 0.00 16 1007.9
20260503032102 91 229 2.0 7.0 0.00 0.00 0.00 18 1007.7
20260503031602 91 233 2.0 8.0 0.00 0.00 0.00 16 1007.6
20260503031101 91 239 3.0 8.0 0.00 0.00 0.00 16 1007.5
20260503030823 91 228 4.0 8.0 0.00 0.00 0.00 16 1007.3
20260503025601 91 122 4.0 9.0 0.00 0.00 0.00 17 1007.0
20260503025101 92 121 4.0 8.0 0.00 0.00 0.00 14 1007.0
20260503024602 92 139 4.0 11.0 0.00 0.00 0.00 13 1006.9
20260503024101 92 209 4.0 11.0 0.00 0.00 0.00 13 1006.8
20260503023556 92 113 3.0 10.0 0.00 0.00 0.00 13 1006.8
20260503023050 92 93 3.0 7.0 0.00 0.00 0.00 14 1006.8
20260503022544 92 129 3.0 7.0 0.00 0.00 0.00 14 1006.8
20260503022038 92 103 3.0 12.0 0.00 0.00 0.00 13 1006.7
20260503021803 92 95 4.0 12.0 0.00 0.00 0.00 13 1006.7
20260503021030 93 131 4.0 9.0 0.00 0.00 0.00 13 1006.7
20260503020530 93 88 2.0 8.0 0.00 0.00 0.00 13 1006.8
20260503020030 94 106 3.0 8.0 0.00 0.00 0.00 12 1006.7
20260503015531 94 86 4.0 11.0 0.00 0.00 0.00 13 1006.8
20260503015030 94 185 5.0 11.0 0.00 0.00 0.00 13 1006.8
20260503014530 94 92 4.0 10.0 0.00 0.00 0.00 13 1007.0
20260503014033 95 75 4.0 10.0 0.00 0.00 0.00 12 1007.0
20260503013530 95 123 4.0 10.0 0.00 0.00 0.00 12 1006.9
20260503013303 95 108 4.0 10.0 0.00 0.00 0.00 11 1006.8
20260503012533 95 115 4.0 10.0 0.00 0.00 0.00 12 1006.9
20260503012043 96 80 4.0 9.0 0.00 0.00 0.00 12 1006.9
20260503011759 96 87 4.0 9.0 0.00 0.00 0.00 12 1006.9
20260503011257 96 78 4.0 11.0 0.00 0.00 0.00 12 1006.8
20260503010530 96 84 4.0 11.0 0.00 0.00 0.00 11 1006.9
20260503010030 96 126 3.0 9.0 0.00 0.00 0.00 11 1006.9
20260503005530 96 89 4.0 10.0 0.00 0.00 0.00 11 1006.8
20260503005042 96 70 4.0 10.0 0.00 0.00 0.00 11 1006.8